Flag for France Weather past 2 weeks in Bastia, Corsica, France

Now
66 °F

Scattered clouds.


Feels Like: 66 °F
Forecast: 55 / 59 °F
Wind: 6 mph from East

Location: Bastia Airport

Current Time: Apr 18, 2015 at 4:30:47 PM

Latest Report: Apr 18, 2015 at 3:30 PM


Visibility: N/A

Pressure: 29.92 "Hg

Humidity: 78%

Dew point: 59 °F

Location of BastiaLocation

Historic Weather in Bastia — Graph

°F

Bastia temperature yesterday

Maximum temperature yesterday: 68 °F (at 11:30 AM)
Minimum temperature yesterday: 54 °F (at 4:30 AM)
Average temperature yesterday: 61 °F

Past Weeks' High & Low Weather Summary

 TemperatureHumidityPressure
High68 °F (Apr 13, 10:30 AM)100% (Apr 11, 11:30 PM)30.42 "Hg (Apr 11, 11:30 PM)
Low41 °F (Apr 7, 4:00 AM)24% (Apr 8, 12:30 PM)29.59 "Hg (Apr 5, 5:30 AM)
Average55 °F74%30.17 "Hg
* Reported Apr 3 3:00 PM — Apr 18 3:30 PM, Bastia, Weather by CustomWeather, © 2015

Note: Actual official high and low records may vary slightly from our data, if they occured in-between our weather recording intervals... More about our weather records

Advertising

Bastia weather history for previous 24 hours

 ConditionsComfort  
Time TempWeatherWind HumidityBarometerVisibility
3:30 PM
Sat, Apr 18
66 °FScattered clouds.6 mph78%29.92 "HgN/A
3:00 PM66 °FScattered clouds.6 mph78%29.92 "HgN/A
2:30 PM66 °FPassing clouds.7 mph78%29.92 "HgN/A
2:00 PM66 °FScattered clouds.7 mph78%29.92 "HgN/A
1:30 PM66 °FScattered clouds.6 mph78%29.92 "HgN/A
1:00 PM66 °FScattered clouds.8 mph78%29.95 "HgN/A
12:30 PM66 °FScattered clouds.6 mph73%29.95 "HgN/A
12:00 PM64 °FScattered clouds.7 mph78%29.95 "HgN/A
11:30 AM64 °FScattered clouds.7 mph78%29.95 "HgN/A
11:00 AM64 °FPassing clouds.6 mph78%29.95 "HgN/A
10:30 AM63 °FPassing clouds.8 mph83%29.95 "HgN/A
10:00 AM63 °FPassing clouds.9 mph83%29.92 "HgN/A
9:30 AM63 °FPassing clouds.6 mph83%29.95 "HgN/A
9:00 AM59 °FPassing clouds.No wind82%29.95 "HgN/A
8:30 AM57 °FPassing clouds.2 mph88%29.95 "HgN/A
8:00 AM54 °FPassing clouds.3 mph100%29.95 "HgN/A
7:30 AM52 °FPassing clouds.3 mph94%29.95 "HgN/A
7:00 AM52 °FFog.2 mph94%29.95 "HgN/A
6:30 AM52 °FFog.2 mph100%29.95 "HgN/A
6:00 AM52 °FPassing clouds.3 mph94%29.95 "HgN/A
5:30 AM52 °FClear.3 mph94%29.95 "Hg10 mi
4:30 AM54 °FClear.2 mph94%29.95 "Hg10 mi
4:00 AM54 °FClear.3 mph94%29.95 "HgN/A
3:30 AM54 °FClear.6 mph94%29.95 "HgN/A
3:00 AM54 °FClear.3 mph100%29.95 "Hg4 mi
2:30 AM55 °FPassing clouds.3 mph94%29.98 "HgN/A
2:00 AM55 °FPassing clouds.5 mph94%29.98 "Hg6 mi
1:30 AM55 °FPassing clouds.3 mph94%29.98 "Hg4 mi
1:00 AM57 °FPartly cloudy.2 mph94%29.98 "HgN/A
12:30 AM55 °FPassing clouds.No wind94%30.01 "HgN/A
12:00 AM57 °FPartly cloudy.1 mph94%29.98 "HgN/A
10:30 PM
Fri, Apr 17
59 °FPassing clouds.3 mph88%29.98 "HgN/A
10:00 PM59 °FPassing clouds.6 mph88%29.98 "HgN/A
9:30 PM59 °FPartly cloudy.6 mph88%29.98 "HgN/A
9:00 PM59 °FScattered clouds.5 mph88%29.98 "HgN/A
8:30 PM61 °FBroken clouds.6 mph83%29.95 "HgN/A
8:00 PM61 °FBroken clouds.2 mph88%29.95 "HgN/A
7:30 PM61 °FBroken clouds.2 mph88%29.95 "HgN/A
7:00 PM61 °FBroken clouds.5 mph88%29.95 "HgN/A
6:30 PM63 °FBroken clouds.5 mph83%29.95 "HgN/A
6:00 PM63 °FBroken clouds.5 mph83%29.95 "HgN/A
5:30 PM63 °FScattered clouds.3 mph83%29.95 "HgN/A
5:00 PM64 °FScattered clouds.6 mph83%29.95 "HgN/A
4:30 PM66 °FScattered clouds.8 mph73%29.95 "HgN/A
4:00 PM68 °FScattered clouds.9 mph73%29.95 "HgN/A
Weather by CustomWeather, © 2015

See weather overviewHow to use our weather pages